Regional Weather Roundup
Issued by NWS Jackson, KY

Home | Current Version | Previous Version | Graphics & Text | Print | Product List | Glossary On
Versions: 1 2 3 4 5 6 7 8 9 10 11 12 13 14 15 16 17 18 19 20 21 22 23 24 25 26 27 28 29 30 31 32 33 34 35 36 37 38 39 40 41 42 43 44 45 46 47 48 49 50
000
ASUS43 KJKL 301311
RWRJKL

EAST KENTUCKY HOURLY WEATHER ROUNDUP
NATIONAL WEATHER SERVICE JACKSON KY
900 AM EDT TUE SEP 30 2014

NOTE: "FAIR" INDICATES FEW OR NO CLOUDS BELOW 12,000 FEET WITH
NO SIGNIFICANT WEATHER AND/OR OBSTRUCTIONS TO VISIBILITY.

* THESE REPORTS ARE NOT UNDER NWS QUALITY CONTROL AND MAY NOT
  REPORT WEATHER SUCH AS PRECIPITATION AND FOG.

KYZ079-080-083-085-087-088-110-112-115-119-120-301400
...EASTERN KENTUCKY...

CITY           SKY/WX    TMP DP  RH WIND       PRES   REMARKS
JACKSON        SUNNY     60  58  92 CALM      29.98S
LONDON         FOG       57  55  93 CALM      30.00R VSB 1/4
SOMERSET*      FOG       57  57 100 CALM      30.00R VSB<1/4
MONTICELLO*    MOSUNNY   57  57 100 CALM      30.01S FOG
WILLIAMSBURG*  CLOUDY    57  57 100 CALM      30.00
MIDDLESBORO*   FOG       58  58 100 CALM      30.01R VSB<1/4
HARLAN APT*    CLOUDY    57  57 100 E7        30.01S VSB<1/4
HAZARD APT*    SUNNY     57  57 100 CALM      29.98S
BLACK MTN*       N/A     63  57  82 S1          N/A
PIKEVILLE APT* FOG       59  59 100 CALM      29.98R VSB 0
BIG SANDY*     FOG       58  58 100 S3        29.98R VSB 1/4
MOREHEAD APT*  SUNNY     59  57  94 CALM      29.99R
$$

KYZ035-036-041-042-044-050-067-078-099-301400
...CENTRAL KENTUCKY...

CITY           SKY/WX    TMP DP  RH WIND       PRES   REMARKS
MT STERLING*   SUNNY     59  55  88 W6        29.98S
FLEMING/MASON* SUNNY     57  54  88 CALM      29.97S
DANVILLE*      SUNNY     55  52  88 CALM      29.99R
RICHMOND*      SUNNY     59  54  82 CALM      29.97R
LEXINGTON      SUNNY     60  53  77 SW3       29.97R
FRANKFORT      SUNNY     55  51  86 N5        29.96R
$$

KYZ091>093-OHZ055-061-077-WVZ005-015-034-035-042-301400
...SOUTHERN OHIO/WEST VIRGINIA...

CITY           SKY/WX    TMP DP  RH WIND       PRES   REMARKS
COVINGTON      MOSUNNY   60  53  77 CALM      29.95S
COLUMBUS       PTSUNNY   57  50  77 CALM      29.93R
DAYTON         PTSUNNY   61  55  81 NW8       29.96R
WILMINGTON     MOSUNNY   61  51  70 W7        29.94S
HUNTINGTON     FOG       57  57 100 CALM      29.95R VSB 1
CHARLESTON     FOG       60  60 100 SW3       29.95R VSB 1/4
PINEVILLE*     FOG       58  58 100 MISG      30.05S VSB 1/4
BECKLEY        SUNNY     60  57  89 SW3       30.01R
BLUEFIELD      SUNNY     62  57  83 W7        30.03S
$$

VAZ002-007-008-TNZ017-027-036-066-071-301400
...SOUTHWEST VIRGINIA/EAST TENNESSEE...

CITY           SKY/WX    TMP DP  RH WIND       PRES   REMARKS
WISE*          SUNNY     61  61 100 SW3       30.04S
JONESVILLE*    FOG       55  55 100 CALM      30.03R VSB<1/4
ABINGDON*      SUNNY     59  59 100 CALM      30.02S
BRISTOL        FOG       56  55  97 CALM      30.01R VSB 1/16
KNOXVILLE      CLOUDY    62  60  93 VRB5      29.99R
OAK RIDGE      FOG       62  61  96 CALM      30.01R VSB 1/2
CROSSVILLE     SUNNY     63  58  83 CALM      30.02R
NASHVILLE      MOSUNNY   63  59  87 CALM      29.97S
$$

...KEY TO REMARKS...
VSB - VISIBILITY IN MILES
WCI - WIND CHILL INDEX
HX  - HEAT INDEX

$$



USA.gov is the U.S. government's official web portal to all federal, state and local government web resources and services.